Logan, UT

3:36 AM MST on December 08, 2019 (GMT -0700)
Logan-Cache

Weather History for KLGU - November, 2019

Change the Weather History Date:

Wednesday, November 13, 2019

  Actual Average Record
Temperature  
Mean Temperature 44 °F -  
Max Temperature 55 °F 48 °F 66 °F (1989)
Min Temperature 30 °F 26 °F 8 °F (2014)
Degree Days  
Heating Degree Days 22    
Moisture  
Dew Point 28 °F    
Average Humidity 59    
Maximum Humidity 82    
Minimum Humidity 33    
Precipitation  
Precipitation 0.00 in - - ()
Sea Level Pressure  
Sea Level Pressure 30.14 in    
Wind  
Wind Speed 2 mph ()    
Max Wind Speed 6 mph    
Max Gust Speed -    
Visibility 10.0 miles    
Events      
Averages and records for this station are not official NWS values.
T = Trace of Precipitation, MM = Missing Value Source: Averaged Metar Reports

Daily Weather History Graph

Daily Weather History Graph

Search for Another Location

Airport or City:

Astronomy

Nov. 13, 2019 Rise Set
Actual Time 7:14 AM MST 5:08 PM MST
Civil Twilight 6:44 AM MST 5:38 PM MST
Nautical Twilight 6:10 AM MST 6:11 PM MST
Astronomical Twilight 5:38 AM MST 6:44 PM MST
Moon 6:13 PM MST (11/13) 8:11 AM MST (11/13)
Length of Visible Light 10h 54m
Length of Day
9h 54m
Full, 98% of the Moon is Illuminated
Nov 13
Full
Nov 19
Last Quarter
Nov 26
New
Dec 3
First Quarter
Dec 11
Full

Hourly Weather History & Observations

Time (MST) Temp. Windchill Dew Point Humidity Pressure Visibility Wind Dir Wind Speed Gust Speed Precip Events Conditions
12:51 AM 35.1 °F 32.2 °F 27.0 °F 72% 30.12 in 10.0 mi Variable 3.5 mph - N/A   Mostly Cloudy
1:51 AM 37.9 °F 35.5 °F 28.0 °F 68% 30.10 in 10.0 mi Variable 3.5 mph - N/A   Overcast
2:51 AM 37.9 °F - 28.0 °F 68% 30.11 in 10.0 mi Calm Calm - N/A   Overcast
3:51 AM 39.0 °F - 28.0 °F 65% 30.11 in 10.0 mi Calm Calm - N/A   Overcast
4:51 AM 39.0 °F 35.7 °F 28.0 °F 65% 30.13 in 10.0 mi South 4.6 mph - N/A   Overcast
5:51 AM 37.0 °F 32.4 °F 28.9 °F 73% 30.14 in 10.0 mi SW 5.8 mph - N/A   Overcast
6:51 AM 35.1 °F 31.0 °F 28.0 °F 76% 30.16 in 10.0 mi East 4.6 mph - N/A   Mostly Cloudy
7:51 AM 36.0 °F - 28.9 °F 76% 30.17 in 10.0 mi Calm Calm - N/A   Overcast
8:51 AM 42.1 °F - 30.9 °F 65% 30.17 in 10.0 mi Calm Calm - N/A   Overcast
9:51 AM 46.0 °F - 26.1 °F 46% 30.16 in 10.0 mi Calm Calm - N/A   Overcast
10:51 AM 48.9 °F - 26.1 °F 41% 30.15 in 10.0 mi Calm Calm - N/A   Overcast
11:51 AM 50.0 °F - 25.0 °F 38% 30.13 in 10.0 mi North 3.5 mph - N/A   Overcast
12:51 PM 54.0 °F - 25.0 °F 33% 30.11 in 10.0 mi Variable 4.6 mph - N/A   Overcast
1:51 PM 55.9 °F - 28.0 °F 34% 30.09 in 10.0 mi Calm Calm - N/A   Partly Cloudy
2:51 PM 55.0 °F - 28.0 °F 35% 30.07 in 10.0 mi Calm Calm - N/A   Clear
3:51 PM 55.0 °F - 28.9 °F 37% 30.07 in 10.0 mi West 5.8 mph - N/A   Clear
4:51 PM 53.1 °F - 28.9 °F 40% 30.08 in 10.0 mi Calm Calm - N/A   Clear
5:51 PM 45.0 °F - 28.9 °F 53% 30.12 in 10.0 mi Calm Calm - N/A   Clear
6:51 PM 41.0 °F - 28.0 °F 60% 30.15 in 10.0 mi Calm Calm - N/A   Clear
7:51 PM 39.0 °F 36.8 °F 28.0 °F 65% 30.16 in 10.0 mi NE 3.5 mph - N/A   Clear
8:51 PM 34.0 °F - 27.0 °F 75% 30.18 in 10.0 mi Calm Calm - N/A   Clear
9:51 PM 32.0 °F - 26.1 °F 79% 30.19 in 10.0 mi Calm Calm - N/A   Clear
10:51 PM 34.0 °F 31.0 °F 28.0 °F 79% 30.18 in 10.0 mi South 3.5 mph - N/A   Clear
11:51 PM 30.0 °F - 25.0 °F 82% 30.20 in 10.0 mi Calm Calm - N/A   Clear